Theta_e
329 327 325 325 325 323 320 318 303 305 302 293 294 296 294 303 303 300 298 299 296 299 301 301 300 299 297 294 295 295 295 294 294 291 290 298 302 303 305 304 303 301 303 302 301 303 302 308 312 314 315 316 317 318 317 316 316 316 317 317 317 318 317 317 317 318 317 318 318 317 317 317 317 317 317 317 318 318 318 319 319 320 319 319 319 320 320 319 320 322 321 321 322 323 323 322 320
328 327 326 325 324 324 313 316 304 299 297 293 294 297 297 301 300 297 296 297 298 299 300 300 300 300 300 299 296 295 292 295 297 295 299 304 302 302 303 303 303 302 302 302 301 301 302 304 311 312 313 315 316 317 316 316 316 317 316 317 317 317 317 317 317 317 316 317 317 316 316 316 316 316 316 316 317 317 316 317 318 318 319 317 319 318 318 318 317 319 319 318 320 320 320 319 318
324 324 323 325 321 318 317 317 301 297 292 288 292 296 302 297 296 298 299 299 300 301 301 300 299 297 298 298 294 294 287 297 297 297 297 298 296 298 303 304 302 303 303 301 301 302 302 304 309 310 312 314 315 317 316 316 316 316 315 316 316 316 316 316 317 316 316 315 316 315 315 315 316 316 315 315 316 316 315 316 317 317 317 316 317 318 318 317 317 317 317 317 316 318 319 317 316
326 326 321 322 316 316 307 305 301 297 291 291 292 298 299 298 297 299 300 301 301 302 302 299 297 299 297 291 293 296 293 291 297 299 296 295 294 299 299 304 303 301 301 304 300 302 304 307 308 309 310 312 314 315 315 315 316 316 315 315 316 316 317 317 317 316 316 315 315 314 315 314 314 314 314 314 314 315 315 314 315 315 316 315 315 316 317 317 316 316 315 316 316 316 316 316 316
321 325 325 318 319 306 306 300 298 297 292 294 291 297 299 300 299 299 300 301 301 301 301 300 296 298 297 294 295 292 289 293 295 298 296 299 301 300 301 304 300 298 299 300 299 302 304 307 308 309 310 311 313 314 314 314 314 314 314 315 315 315 315 315 315 315 315 315 314 314 315 314 313 314 314 315 315 314 313 313 314 313 313 313 314 315 315 315 315 315 314 314 315 315 315 315 314
324 328 329 318 308 319 306 297 294 294 297 299 294 296 299 300 299 299 300 301 301 301 302 301 297 295 293 293 295 290 296 293 297 296 299 298 304 303 303 305 298 298 298 299 300 303 305 307 308 308 309 310 312 313 314 313 313 314 314 314 314 314 314 314 314 314 314 314 316 315 314 314 314 314 314 314 314 314 313 313 313 313 313 313 314 314 314 314 314 314 313 313 313 314 314 313 313
323 322 323 314 310 310 296 293 292 294 296 300 297 298 299 300 300 300 299 299 301 300 302 299 300 296 291 293 295 296 298 299 298 299 301 303 304 304 303 298 298 297 298 299 299 304 306 307 307 307 308 309 310 311 312 312 312 312 312 313 313 313 313 313 313 313 313 313 313 313 312 312 312 312 312 312 312 313 313 313 313 312 312 312 312 312 312 312 312 312 312 312 313 312 312 312 312
324 319 312 304 300 301 294 293 293 295 294 299 300 299 300 300 301 301 300 299 296 297 299 300 300 295 292 299 289 298 299 298 299 301 303 299 304 304 304 298 297 298 299 299 299 304 309 307 306 306 307 308 309 310 310 311 311 311 311 312 312 312 312 312 312 312 312 312 312 312 311 311 311 311 311 311 311 311 312 311 311 311 311 311 311 311 311 311 310 310 310 311 311 311 311 311 311
323 314 316 305 297 299 294 292 293 298 297 299 299 302 303 302 302 301 298 299 299 299 297 297 298 294 291 292 290 294 295 298 299 302 302 302 302 303 301 301 298 299 299 299 299 302 305 306 306 305 306 306 307 308 308 309 309 309 310 311 311 311 311 311 311 311 311 311 311 310 310 310 310 310 310 310 310 310 310 309 308 309 309 309 310 309 309 309 308 309 309 310 310 310 310 311 311
316 317 303 302 300 293 293 293 292 294 296 299 299 300 301 302 301 302 299 297 298 298 298 299 297 292 294 289 291 293 294 299 301 301 301 303 302 305 301 301 300 299 298 298 299 301 303 308 305 305 305 305 305 306 307 308 308 309 309 309 310 310 310 310 309 310 310 310 310 310 310 310 310 309 309 308 308 308 308 308 307 307 308 308 308 308 308 308 307 307 308 309 309 310 310 310 309
308 314 313 299 294 291 290 290 293 295 296 299 299 302 302 302 301 298 298 297 300 297 298 298 294 293 292 290 289 299 300 300 297 297 301 302 304 302 298 301 300 301 298 301 302 300 299 303 307 305 305 304 305 305 306 307 308 308 309 309 309 309 308 308 309 309 309 310 310 310 310 309 308 308 307 307 306 305 307 307 306 307 307 308 308 308 307 307 307 307 307 308 308 308 309 308 307
306 307 309 296 293 292 292 292 293 295 297 297 296 300 301 301 302 298 299 296 297 295 294 296 292 296 291 289 289 292 295 295 297 298 301 301 298 301 302 297 302 300 302 300 301 300 300 301 303 311 306 306 306 306 304 307 308 307 307 308 308 308 308 308 308 309 309 309 309 309 309 308 307 305 305 305 305 304 305 305 305 305 307 307 307 307 307 306 306 306 307 307 307 307 307 306 306
305 305 300 296 293 294 294 293 293 295 295 295 296 300 302 300 297 298 296 297 297 295 292 295 297 297 289 288 291 294 293 294 299 299 300 297 299 298 301 297 300 302 304 303 300 299 302 299 300 301 305 306 305 306 306 307 307 307 306 307 307 307 307 307 308 308 308 307 307 307 308 307 306 304 304 304 303 303 303 303 302 304 305 306 305 305 306 305 305 306 306 306 306 306 305 305 305
308 306 302 294 298 295 293 292 294 292 291 296 299 300 300 298 298 298 298 295 294 292 295 297 298 295 290 290 290 289 291 296 297 299 297 299 300 299 302 300 303 301 303 300 298 298 298 300 300 301 300 300 300 304 306 306 306 306 305 306 306 306 307 307 306 306 306 306 306 306 306 305 304 302 303 302 301 301 301 301 301 303 304 304 304 305 305 304 304 305 305 304 305 305 304 303 302
306 309 301 296 294 294 295 292 293 291 290 296 299 300 298 298 298 297 292 294 293 298 301 298 296 295 285 288 286 290 292 297 298 303 302 301 300 300 302 300 302 302 299 298 299 299 298 300 299 299 301 299 299 299 300 303 307 306 305 305 305 305 306 306 305 305 305 305 304 304 304 303 302 301 302 300 300 300 300 299 300 301 303 303 303 304 304 303 303 304 304 304 304 303 302 301 300
312 307 303 297 294 293 294 294 294 292 291 297 299 300 296 295 295 294 294 293 292 296 294 290 295 293 291 290 291 295 294 297 299 299 299 302 301 302 300 299 297 298 299 298 298 298 300 299 299 299 299 299 299 299 300 300 306 307 304 305 304 305 304 305 304 304 303 303 302 302 301 298 299 296 300 295 298 298 298 297 299 300 301 302 302 303 302 302 302 303 302 303 303 302 300 300 299
313 308 296 294 291 293 295 293 294 289 294 297 299 297 292 290 293 293 296 294 290 289 291 292 293 295 291 291 294 296 297 301 301 297 301 298 295 294 296 296 297 296 301 299 297 297 298 299 298 298 299 299 299 299 299 301 302 306 306 304 304 305 304 304 303 303 302 301 299 298 297 294 293 292 292 292 296 294 296 297 298 298 299 300 300 301 301 300 301 302 301 301 301 300 298 297 297
312 300 296 292 293 292 295 294 295 297 294 295 296 296 292 289 291 291 293 291 290 290 290 291 293 293 294 294 295 297 299 297 296 297 296 295 295 292 292 293 293 293 295 296 297 297 298 298 297 297 298 299 299 301 302 302 300 303 300 299 300 302 304 305 300 299 301 296 298 294 292 292 291 290 291 295 292 294 293 297 297 297 298 298 299 299 299 299 300 300 300 300 299 297 296 290 291
301 297 295 290 293 294 298 297 298 296 294 297 296 296 293 290 291 291 288 288 289 288 289 292 290 292 293 294 296 296 298 297 295 296 295 295 294 293 293 294 294 293 294 295 298 296 297 297 297 297 298 299 299 298 301 301 298 298 298 299 299 303 300 301 297 298 295 295 293 291 292 289 290 290 290 293 293 295 292 295 295 295 296 296 297 296 297 297 298 298 298 298 297 295 290 287 287
300 296 291 292 296 296 298 299 298 299 298 294 293 294 293 292 292 292 290 287 289 288 287 288 288 289 291 293 294 297 298 297 297 298 297 296 297 296 296 294 294 294 295 296 295 301 296 296 296 297 298 298 298 298 300 298 298 297 297 298 297 296 296 298 296 296 294 293 291 289 289 290 290 288 293 293 293 290 289 293 294 293 293 293 295 292 293 294 295 295 295 295 293 291 287 287 287
299 296 292 294 296 294 296 298 298 297 297 294 293 292 291 292 292 292 290 287 288 288 290 289 289 289 291 292 293 296 296 297 297 298 297 298 298 298 296 296 294 295 295 296 296 300 296 296 296 296 298 297 298 297 297 297 298 297 297 296 297 295 296 295 295 294 293 291 290 288 289 290 289 288 288 288 288 288 288 287 287 287 287 287 292 286 287 287 288 287 287 289 286 287 287 286 287
299 294 296 296 296 292 295 296 297 295 295 293 292 290 289 292 293 291 290 286 284 287 290 291 291 292 291 292 292 295 296 297 295 295 294 297 296 297 296 294 296 294 296 294 294 294 296 296 297 296 297 297 297 297 297 300 298 296 296 296 296 295 296 295 294 293 291 289 288 288 290 288 287 287 287 287 287 287 287 287 286 286 286 286 288 286 286 286 286 286 286 286 286 286 286 287 287
291 294 295 296 295 293 295 295 295 295 294 292 290 291 291 291 289 291 290 288 288 291 292 292 292 293 292 293 294 294 295 294 295 295 296 297 296 297 296 295 294 294 294 294 295 295 296 296 296 296 296 296 297 297 298 297 296 297 296 297 296 294 294 294 292 291 290 289 288 288 289 287 286 286 286 286 286 287 286 286 286 286 285 285 286 285 285 285 285 286 285 285 285 285 286 286 287
294 290 294 294 296 293 295 293 294 293 292 291 292 294 291 290 288 290 289 290 291 291 292 292 292 293 293 292 293 295 295 294 294 295 296 296 297 298 297 296 294 293 295 295 295 295 296 295 295 295 296 296 295 297 297 296 296 297 297 298 296 297 295 293 290 289 290 288 289 287 290 287 286 285 285 285 286 286 286 286 285 285 285 285 285 285 284 285 285 285 285 284 284 284 285 285 286
291 290 293 293 294 294 294 293 292 292 292 291 292 290 288 290 289 290 289 290 291 291 292 292 292 292 292 291 291 292 292 294 294 295 296 294 297 297 296 295 295 296 294 294 295 295 295 297 296 295 296 296 296 296 296 296 296 296 296 294 294 298 293 291 289 288 287 288 288 287 289 286 286 285 285 285 285 285 285 285 285 284 284 284 284 284 284 284 284 284 284 283 283 283 284 284 286
293 292 293 293 292 293 292 292 292 291 291 291 290 289 290 290 292 288 290 290 291 292 291 291 291 291 291 291 291 292 292 293 294 294 295 296 296 296 297 293 294 293 294 294 295 295 295 295 295 295 296 296 296 296 295 295 295 295 295 294 293 294 291 290 288 286 286 286 286 287 287 287 285 285 284 284 285 285 285 284 284 284 283 283 284 283 284 284 284 284 283 283 283 283 283 284 285
295 293 293 292 292 293 293 291 291 291 291 292 289 289 289 291 290 285 291 291 291 291 291 291 290 290 291 292 292 292 293 293 294 295 296 295 294 294 295 295 294 294 295 294 294 295 296 295 295 296 297 298 296 295 296 295 295 294 295 293 292 290 290 290 288 287 287 286 287 286 286 287 286 285 284 284 284 284 284 283 283 283 282 283 283 283 284 284 284 283 283 283 283 283 283 284 284
294 293 292 291 292 292 292 292 291 291 290 291 290 288 291 290 290 286 289 291 291 290 291 291 290 290 290 292 291 294 294 294 293 294 294 293 294 293 293 293 294 294 295 294 295 296 295 295 295 296 296 297 296 295 296 295 294 294 294 291 290 290 291 287 286 287 288 286 287 286 285 286 288 284 284 284 284 284 283 283 283 283 282 282 283 283 284 284 283 283 283 283 283 283 283 283 284
293 292 287 288 290 289 291 290 292 291 289 291 290 287 286 288 286 291 290 291 291 290 290 291 291 290 291 292 292 292 291 292 293 292 293 293 294 294 293 295 294 293 294 295 295 296 294 295 296 296 296 296 295 295 294 294 293 294 292 289 291 292 288 287 286 286 286 286 286 285 285 286 286 284 284 284 285 283 283 282 282 283 282 282 283 284 284 283 282 282 282 283 282 283 282 282 284
294 292 289 287 287 286 290 292 292 290 289 291 290 280 283 286 289 290 291 290 290 290 288 289 289 290 290 291 291 291 293 292 292 293 293 294 294 294 294 295 295 294 294 295 295 294 295 298 298 298 297 296 297 295 295 293 293 293 292 288 291 289 287 286 288 286 287 286 286 285 284 285 285 284 284 283 283 282 282 282 282 282 282 282 283 284 282 282 281 281 281 281 283 282 281 281 282
288 290 290 285 284 282 290 290 289 289 290 290 291 282 283 287 289 290 290 291 289 287 288 289 290 290 290 292 291 292 293 293 293 294 297 296 295 294 294 295 295 295 295 295 295 295 296 296 299 297 297 295 295 294 294 294 293 292 289 288 289 289 288 286 285 286 285 284 285 283 284 285 284 284 284 283 283 282 282 281 282 281 282 283 282 283 282 281 281 280 281 280 280 280 281 282 282
289 285 284 288 284 283 288 291 289 286 289 291 289 284 283 286 288 290 290 290 290 287 288 289 290 290 291 290 290 290 291 294 294 294 295 294 295 294 294 295 294 294 295 295 295 295 295 295 296 295 295 294 294 296 294 293 292 291 290 292 288 289 287 286 285 285 285 283 284 283 283 285 284 283 283 283 282 282 281 281 281 281 282 282 282 282 282 280 280 280 280 280 279 279 280 280 281
289 287 283 284 285 284 286 288 291 291 288 291 288 282 285 286 288 290 290 290 289 287 288 289 290 291 291 290 291 290 294 292 295 294 296 295 295 294 294 293 294 295 295 295 294 294 295 296 296 295 294 295 294 294 293 292 291 290 289 288 288 288 286 285 285 285 285 283 282 282 283 285 283 283 283 283 282 282 281 281 281 281 282 281 281 281 280 281 280 280 279 281 280 279 279 279 280
285 287 282 286 283 283 282 287 290 291 289 285 287 284 284 287 289 289 290 290 289 287 287 289 289 289 290 291 290 290 291 292 293 293 294 294 294 295 294 297 295 294 295 295 294 295 295 295 295 295 296 294 294 293 292 291 290 289 288 288 291 287 286 285 285 285 284 282 282 282 283 283 284 283 282 282 281 283 282 281 281 281 281 280 281 280 279 280 280 279 278 279 280 279 279 279 279
284 285 283 283 283 284 283 283 287 287 289 286 286 285 285 288 288 288 289 290 289 287 288 288 289 290 291 291 291 291 291 292 291 293 294 295 296 295 294 294 295 295 294 294 294 295 295 295 296 295 294 293 292 292 292 290 289 288 288 287 287 286 286 285 284 283 283 282 282 283 284 283 284 283 282 282 281 281 281 280 280 280 280 280 280 280 278 279 280 279 278 278 280 279 279 279 279
287 287 286 286 283 282 283 286 288 287 284 285 284 283 285 287 289 289 289 289 288 288 288 289 289 289 290 290 291 291 292 291 294 295 296 295 295 295 294 294 294 295 293 293 295 294 294 294 295 294 293 292 292 291 290 288 287 286 285 286 285 286 285 287 284 283 283 282 284 282 283 282 282 284 282 281 281 281 280 280 280 280 280 280 280 279 278 278 278 278 278 278 278 279 280 279 279
288 289 289 283 286 284 287 286 287 289 285 284 285 286 285 287 288 289 289 288 288 288 287 288 289 290 291 291 291 291 291 292 296 296 296 297 297 295 295 294 294 294 294 293 293 294 294 293 294 292 292 292 290 289 288 286 285 284 284 284 283 284 284 285 284 283 283 283 283 282 282 282 281 281 282 281 280 281 281 279 279 279 279 280 280 279 278 278 279 278 278 278 278 277 277 278 279
288 288 288 285 285 282 287 286 288 288 285 283 286 285 286 287 288 289 289 287 286 287 287 288 288 289 290 290 291 290 291 295 295 294 295 295 293 296 295 294 296 292 292 292 293 293 293 293 292 292 291 290 289 288 287 287 285 285 284 284 284 284 282 282 282 282 283 285 283 282 282 281 281 281 282 281 281 280 279 279 279 278 279 278 280 280 279 281 278 277 277 276 277 277 276 278 279
290 287 285 285 284 287 285 287 287 288 287 283 285 283 285 286 288 289 288 288 289 290 290 290 289 290 291 291 290 291 291 292 291 291 293 293 297 296 294 294 294 294 293 292 294 293 293 293 292 291 290 289 288 289 287 285 286 287 285 285 285 284 284 284 283 284 284 282 282 282 282 281 281 280 280 282 280 280 279 278 278 278 278 280 278 277 277 277 277 277 277 276 275 276 277 278 278
285 285 282 281 285 282 279 285 286 288 285 283 283 282 285 287 287 287 288 289 290 292 293 293 293 290 290 290 290 290 290 291 291 290 290 292 294 293 294 294 294 294 293 293 293 292 293 294 291 290 289 288 287 288 288 288 288 287 286 286 286 285 285 286 284 283 282 282 281 282 281 280 280 280 280 280 280 279 279 278 278 278 278 279 278 277 276 276 276 276 276 277 276 274 275 275 279
286 286 284 282 282 282 280 281 286 288 288 286 283 282 283 285 285 286 288 289 290 290 290 290 292 293 292 293 292 292 290 291 291 291 291 291 291 292 293 294 294 293 294 292 293 292 294 292 291 290 288 287 286 288 287 288 287 285 285 285 286 285 284 282 280 280 281 282 281 280 280 281 280 280 280 279 280 279 279 278 278 278 277 278 278 277 276 276 276 276 277 276 276 275 274 275 276
281 284 285 284 284 283 284 285 284 282 281 286 284 278 279 283 284 285 286 287 287 288 288 288 289 290 291 290 291 291 293 292 291 291 291 291 291 292 293 293 293 293 293 294 293 293 292 291 290 289 288 287 286 286 286 287 285 283 283 281 281 280 280 279 277 278 278 278 278 280 281 281 280 280 279 279 279 280 278 278 278 277 277 277 278 277 276 276 276 276 276 276 275 276 275 274 274
283 281 284 286 285 285 284 284 283 279 278 283 286 278 278 281 283 285 286 286 286 288 288 288 289 290 289 290 290 291 291 290 291 291 291 291 292 292 292 293 293 293 293 293 293 292 292 291 290 289 287 287 288 285 285 287 283 283 283 282 282 280 279 280 279 280 279 279 280 279 280 281 280 279 279 278 278 279 279 278 277 277 277 277 280 277 276 276 276 276 278 276 276 278 275 273 274
282 282 284 285 285 284 284 284 282 281 284 288 286 282 277 278 281 285 286 285 286 286 288 289 290 289 289 289 289 290 289 290 292 291 291 291 291 291 292 293 293 293 293 293 292 292 291 290 289 288 287 287 285 285 284 285 283 283 282 282 284 280 279 279 279 279 280 281 279 279 280 279 280 280 279 278 278 278 279 278 277 277 277 277 279 276 275 276 277 277 278 277 277 277 275 274 274
283 285 286 285 285 285 284 282 282 282 279 279 280 282 277 278 280 285 285 283 285 285 285 287 289 289 288 290 289 290 290 290 291 291 291 291 291 292 292 292 293 293 293 292 292 291 291 290 289 287 286 285 285 285 285 283 285 283 282 281 280 281 281 281 281 282 279 280 278 279 279 279 279 279 279 279 278 278 280 278 277 276 276 276 279 277 276 276 276 275 275 275 275 275 276 277 275
285 287 286 286 286 285 284 280 281 282 279 278 278 280 276 278 280 281 283 283 284 285 285 286 288 289 289 290 290 290 290 291 291 291 291 292 292 292 292 293 292 293 293 294 292 291 290 288 288 287 285 284 284 284 283 283 282 283 281 281 280 279 279 279 279 279 278 278 277 278 278 278 278 278 278 278 277 278 277 278 277 277 276 277 279 276 276 275 276 275 276 276 276 275 275 276 276
287 287 285 283 284 282 282 281 279 279 277 278 280 280 278 275 280 281 280 283 284 285 285 286 288 289 289 290 290 291 289 291 291 291 291 291 292 293 292 291 292 293 292 292 292 291 289 288 287 285 284 284 284 283 283 283 282 282 280 280 280 279 278 278 277 278 277 277 276 277 277 278 278 278 278 278 278 277 277 279 277 277 278 278 278 275 275 275 275 275 276 276 276 275 275 275 276
285 283 283 282 281 281 280 280 280 277 277 278 279 280 279 275 278 282 286 285 285 285 285 286 286 287 289 289 289 289 289 290 291 290 290 291 291 291 291 290 292 292 292 292 291 291 290 288 287 285 284 284 284 284 283 283 282 281 281 280 279 279 278 278 277 277 276 276 276 276 276 277 277 278 277 276 276 276 278 276 277 276 277 276 275 276 276 276 276 276 275 276 276 275 275 277 276
284 282 282 279 281 279 278 280 276 279 278 278 278 281 278 275 279 283 284 284 286 288 287 287 287 288 288 289 290 289 290 290 291 291 292 293 291 291 291 290 291 291 291 291 291 290 289 288 286 285 284 283 283 283 282 282 281 280 280 279 279 280 279 278 277 277 276 276 275 275 275 275 275 276 275 276 276 276 277 276 276 275 275 276 277 275 275 276 276 275 276 276 275 275 275 276 276
281 280 278 279 277 275 273 277 278 280 279 278 277 279 275 280 284 285 284 286 286 287 288 288 288 288 288 289 289 289 290 290 290 291 291 292 292 291 292 291 292 292 291 292 291 290 289 289 287 285 283 283 283 282 282 281 281 280 280 279 278 278 278 278 277 276 276 276 277 275 275 275 275 275 275 275 276 276 276 276 276 276 276 275 276 276 276 276 276 275 276 275 275 276 276 276 277
280 282 282 280 279 276 273 276 274 274 277 279 278 276 278 278 280 287 285 286 286 286 287 288 289 289 289 289 289 290 289 289 289 290 291 291 292 292 292 292 292 292 292 292 291 290 289 288 287 285 283 283 282 282 282 281 280 280 279 279 278 278 278 277 277 279 276 276 276 275 275 275 275 275 275 276 276 275 275 275 276 276 276 275 276 275 277 275 275 276 276 276 276 276 276 277 277
282 284 283 282 279 279 279 278 277 275 274 276 276 278 279 281 286 286 284 284 285 286 286 287 287 287 288 288 288 288 288 289 290 290 291 291 291 292 292 292 292 291 291 291 291 290 289 288 286 284 283 282 283 283 281 280 280 280 279 279 278 279 278 278 278 278 276 276 276 276 275 275 275 275 275 275 275 275 275 275 275 275 275 276 275 276 275 275 275 275 275 275 275 278 276 276 277
282 282 281 280 282 280 276 273 274 274 274 274 280 279 282 286 284 285 285 284 284 285 285 286 286 287 287 287 288 288 289 289 290 290 290 291 291 291 291 291 291 291 291 292 291 290 289 288 286 284 283 282 282 282 281 280 279 279 278 278 277 277 277 276 276 276 276 276 277 276 275 276 276 276 276 276 275 275 275 275 275 275 275 275 275 275 275 275 275 275 275 275 275 275 276 276 277
281 281 280 283 279 279 279 277 275 276 275 277 278 278 277 280 279 284 284 283 284 284 285 285 286 287 286 288 289 289 290 290 290 290 290 291 290 291 291 292 291 291 291 291 291 290 289 288 285 283 283 281 281 281 280 280 279 278 278 277 277 277 276 276 276 276 276 276 275 275 275 276 275 275 276 277 275 275 275 276 274 275 275 275 275 275 275 275 275 274 275 275 275 276 276 277 278
283 281 285 281 281 279 281 278 272 271 271 275 277 279 277 278 280 280 280 281 283 285 285 285 286 287 287 288 289 289 290 290 290 290 289 290 289 290 291 291 291 291 291 291 291 290 288 286 285 284 282 282 281 281 280 280 280 279 278 277 276 276 276 276 277 277 276 275 275 275 275 275 275 275 276 274 274 274 274 275 274 274 275 275 275 275 275 275 274 274 275 275 275 276 276 277 277
282 283 282 283 279 278 278 279 277 278 273 274 273 277 278 283 280 281 282 284 284 285 284 285 286 288 289 289 289 289 289 290 290 290 290 291 290 290 291 291 289 289 290 290 289 288 287 286 285 283 282 281 280 280 281 279 278 278 277 276 276 276 277 276 276 276 275 275 275 275 274 274 274 275 274 275 274 274 274 274 274 274 274 274 274 274 274 274 274 274 274 275 275 276 276 276 276
280 280 280 280 279 281 280 279 277 277 274 275 273 272 278 284 285 285 285 285 286 286 286 287 287 289 289 289 289 289 289 289 289 290 290 290 290 289 290 290 290 290 289 288 288 287 285 284 283 282 281 280 280 280 279 278 278 278 278 275 275 276 275 276 276 276 275 275 275 276 275 274 275 274 274 274 274 273 274 274 273 274 274 274 274 274 274 274 273 273 274 275 275 276 276 276 277
279 280 280 280 279 279 277 276 277 276 276 274 274 274 280 287 287 288 286 287 287 288 287 288 287 287 288 289 289 289 289 290 289 289 289 289 289 289 289 289 288 289 288 288 287 286 284 283 282 281 280 280 279 279 279 278 278 277 276 276 275 275 275 275 275 275 275 275 274 275 274 275 273 273 274 274 273 273 274 273 273 273 273 273 274 273 273 273 273 273 273 275 276 276 276 276 277
Wind_Speed
7 6 5 6 5 5 6 3 1 3 5 9 7 7 6 8 8 8 7 9 5 4 5 5 6 9 9 6 9 7 8 5 2 2 2 0 2 3 3 3 2 1 2 3 4 1 6 12 18 18 18 19 19 19 18 17 18 19 19 19 19 20 20 20 20 20 20 21 21 20 21 20 20 21 21 21 21 21 21 22 21 21 20 19 20 22 22 20 21 23 23 22 23 24 23 23 20
7 6 5 5 4 2 2 2 3 5 7 8 9 6 6 7 8 8 9 10 6 3 3 3 4 6 9 10 12 10 9 6 4 2 1 2 4 3 1 1 2 2 3 3 3 5 5 8 16 16 17 18 18 18 17 17 18 17 18 19 19 20 20 20 20 20 20 20 20 20 19 20 20 21 21 21 20 21 21 21 21 21 20 20 20 20 21 21 21 21 21 20 22 24 23 22 21
7 6 5 6 6 6 2 1 2 5 7 8 6 5 4 8 8 7 8 7 6 4 1 4 5 5 2 8 5 5 2 3 3 4 2 5 4 1 3 1 2 4 3 0 1 5 5 7 14 15 17 17 17 17 17 17 17 17 18 18 19 19 20 20 20 20 21 20 19 19 19 19 20 20 20 21 20 20 20 21 21 21 22 20 21 20 21 20 21 21 21 20 20 21 22 21 19
6 8 4 4 1 5 4 4 7 6 8 6 5 4 6 6 7 8 7 7 3 0 2 4 2 5 4 7 2 7 7 4 2 2 2 2 2 1 2 1 6 4 2 0 2 4 5 8 13 14 16 17 16 16 16 16 17 17 17 18 18 18 19 19 19 20 20 20 20 20 19 19 20 20 20 20 20 20 20 20 21 21 21 21 21 21 19 19 19 19 19 19 19 18 18 17 18
4 5 3 6 2 4 3 5 5 6 8 3 5 5 6 7 8 7 6 4 4 1 4 4 4 3 9 7 6 2 3 6 4 5 3 3 3 3 2 3 4 4 3 2 2 5 5 12 12 14 16 16 16 16 16 16 16 17 17 17 17 18 18 19 19 20 20 20 20 19 19 19 19 19 19 20 20 20 20 20 19 20 20 20 19 19 19 19 19 19 18 18 18 18 18 18 17
7 2 3 6 4 0 6 5 8 11 7 6 6 5 6 7 8 7 7 6 6 3 3 8 5 3 5 4 4 3 4 1 2 4 3 2 2 3 3 4 3 3 4 3 3 6 5 11 12 14 16 16 16 16 16 17 17 17 17 17 17 18 18 19 19 19 19 19 19 18 18 18 18 18 19 19 19 20 20 19 19 19 18 18 18 18 18 18 19 19 19 18 18 18 18 17 17
2 2 1 4 8 5 6 9 9 8 8 6 6 6 7 6 6 7 7 6 5 8 5 6 4 9 7 2 5 4 4 4 2 2 3 0 3 3 3 4 3 4 4 3 4 7 6 10 11 13 14 15 15 16 17 17 17 17 17 17 17 18 18 19 19 19 19 19 19 18 18 18 18 18 18 19 20 19 20 19 19 19 18 18 18 18 18 18 19 19 19 19 18 18 18 18 18
3 1 4 6 6 5 10 9 8 4 6 10 7 8 7 5 2 3 6 3 3 4 6 2 2 7 3 3 4 1 4 5 4 3 1 3 1 1 2 3 3 3 3 5 4 5 7 11 10 12 13 13 14 15 16 16 17 17 17 17 17 18 19 19 19 20 20 20 19 19 18 17 18 18 18 19 20 20 19 20 19 19 19 18 18 17 17 18 19 19 19 19 19 19 19 18 18
1 4 4 8 8 4 8 9 8 6 7 6 8 8 8 7 3 4 6 6 6 7 8 7 2 1 6 11 6 4 4 4 5 3 1 3 3 2 3 2 3 4 5 5 4 3 5 7 8 10 11 11 12 13 15 16 17 17 17 17 17 17 18 18 19 19 19 19 19 19 18 17 18 17 18 18 19 20 19 20 20 20 19 18 18 18 17 17 18 19 19 19 19 19 19 19 19
2 1 3 3 5 10 8 6 6 5 7 7 6 7 5 3 5 6 6 8 6 7 6 8 5 8 7 10 6 3 2 2 3 3 3 3 1 2 4 3 5 4 5 4 3 3 4 5 7 7 7 7 8 11 12 15 16 16 16 16 16 16 17 18 18 19 19 19 19 19 18 17 17 16 17 17 19 18 19 19 20 20 20 19 18 18 18 17 17 17 18 19 19 20 19 19 19
3 1 4 6 6 8 7 7 7 6 8 6 7 7 5 3 6 7 8 7 5 6 6 10 4 5 8 7 4 2 3 2 4 3 2 1 3 3 3 3 4 3 4 4 3 4 3 3 6 5 5 3 6 6 10 12 14 16 15 15 15 16 16 17 17 18 18 18 20 19 18 17 16 15 15 16 19 19 17 18 20 20 20 19 19 19 18 18 17 17 17 18 19 19 19 19 19
3 1 3 6 6 6 6 7 8 7 7 5 7 6 3 4 1 5 5 6 5 9 9 8 3 6 4 5 3 3 4 4 3 3 2 3 2 1 3 3 3 4 3 3 3 2 2 2 1 1 11 12 13 11 2 9 12 16 13 14 15 15 16 17 16 17 18 16 20 18 18 16 16 18 14 16 19 21 18 18 19 20 19 19 19 19 19 18 18 18 17 17 18 18 18 19 19
7 6 9 7 5 7 8 8 7 7 5 5 6 5 2 6 8 6 6 6 7 7 7 6 7 6 4 5 3 4 5 3 3 3 2 3 1 3 3 4 4 3 3 3 4 5 4 4 2 2 6 11 11 13 14 5 11 12 11 12 13 14 15 16 15 15 17 17 20 20 18 16 16 20 17 15 20 20 19 18 19 19 19 18 19 19 19 18 18 19 18 18 18 18 18 18 18
3 3 3 8 5 7 6 6 6 5 4 5 4 5 8 6 6 7 5 7 8 7 2 5 5 6 6 4 3 5 4 3 3 3 2 3 2 2 1 2 3 2 3 4 4 4 4 4 5 4 4 4 4 6 9 8 6 9 8 8 9 12 14 14 13 16 16 18 20 20 18 17 17 20 17 16 21 19 19 18 19 19 19 18 18 19 18 17 18 19 18 18 19 18 18 18 17
6 3 4 7 7 6 6 4 4 6 4 5 4 4 5 6 5 6 9 6 7 4 1 4 3 3 4 2 3 3 4 3 2 0 1 3 4 3 4 4 5 2 4 4 2 2 3 3 4 4 4 4 6 4 3 4 5 6 6 6 7 8 11 14 12 16 15 18 20 20 18 18 17 20 17 18 20 19 18 18 19 19 19 19 19 19 18 17 18 18 18 18 19 19 18 18 16
2 3 3 5 5 5 4 6 6 6 4 5 3 5 7 6 5 3 2 4 3 3 3 3 5 2 4 8 4 3 4 2 1 3 2 3 4 2 4 2 4 4 4 4 2 4 2 3 3 2 5 5 4 5 5 4 7 8 3 4 8 12 11 17 16 16 14 16 19 19 19 13 13 13 17 14 18 19 18 16 18 18 18 19 19 19 18 17 18 18 17 18 19 18 18 18 17
2 3 7 6 8 5 1 3 3 4 7 6 5 5 5 5 4 3 0 2 7 4 5 4 3 3 5 5 3 3 1 0 1 3 4 4 5 6 4 6 4 4 3 2 4 4 3 3 4 3 4 4 5 5 4 4 9 12 7 12 13 13 15 15 16 14 12 12 15 16 15 10 7 7 7 9 15 11 17 17 18 18 18 19 19 19 18 18 19 18 18 18 18 18 17 18 17
2 4 8 10 6 8 6 8 6 8 8 6 5 2 7 5 2 2 2 6 4 5 5 3 5 5 5 4 3 2 1 1 3 4 4 4 4 4 5 3 4 4 4 4 4 3 2 3 5 4 4 4 4 5 4 3 6 7 6 6 7 6 10 9 6 7 8 6 12 10 8 8 7 6 6 9 7 10 11 18 18 18 18 18 19 19 18 19 19 18 18 19 19 17 18 8 7
7 5 7 9 4 5 6 6 8 6 7 7 5 1 5 5 2 1 1 4 4 4 4 4 5 4 4 4 2 2 1 3 4 3 4 4 4 4 4 3 4 4 4 3 0 2 2 2 4 4 4 3 4 5 4 4 5 4 5 6 7 7 10 6 5 6 5 6 7 8 8 7 7 6 7 11 11 15 13 18 18 18 18 18 18 19 18 19 19 19 19 18 18 18 9 6 6
11 7 9 8 6 9 10 11 11 10 9 8 5 4 6 2 1 2 2 4 4 4 5 3 4 5 5 3 3 1 0 2 4 1 3 3 3 3 2 3 2 1 2 1 4 2 5 3 5 5 4 4 4 4 5 4 4 5 6 5 6 6 7 5 5 6 6 6 7 8 7 7 8 6 10 15 13 6 8 13 17 16 17 16 19 12 14 15 19 17 18 18 11 6 6 6 6
4 7 6 6 5 8 9 9 9 8 7 7 6 3 5 2 2 3 1 2 2 6 5 3 5 4 3 3 3 0 1 2 3 3 4 2 2 1 2 2 2 2 2 2 3 3 4 4 4 3 3 4 4 4 4 4 4 4 5 4 5 7 6 6 6 5 6 7 7 8 8 7 7 6 6 7 7 6 7 6 7 6 7 6 13 7 7 8 9 7 7 8 6 7 7 7 6
9 11 10 9 7 10 9 8 8 6 7 6 4 4 4 2 1 2 3 3 3 3 4 4 4 3 2 1 3 0 1 2 2 3 3 2 3 3 3 3 4 4 3 2 4 3 5 5 3 3 4 4 4 4 4 4 5 4 5 5 5 6 5 6 6 5 6 6 7 8 7 7 7 6 6 7 7 6 6 6 7 6 7 6 8 7 7 8 8 7 7 8 8 7 7 7 6
10 9 10 9 7 10 6 6 3 2 4 4 4 4 3 1 3 2 2 4 3 3 3 3 3 2 3 1 0 1 1 2 1 3 2 3 1 1 3 3 2 3 4 3 3 3 4 4 4 5 5 5 4 5 5 5 6 4 6 5 5 6 5 6 6 5 6 6 7 8 7 6 7 6 6 7 7 6 6 6 7 6 7 6 7 7 8 9 8 8 7 8 8 8 8 8 7
13 9 8 10 9 11 7 4 6 6 7 5 3 1 1 2 1 1 1 4 3 2 2 3 2 1 1 1 2 2 0 1 2 2 1 0 2 0 1 1 2 2 0 3 2 4 5 4 4 4 4 6 4 4 5 5 5 5 5 5 5 7 5 5 6 6 6 6 7 8 6 6 7 6 6 7 7 6 6 7 6 6 7 7 7 7 8 8 8 8 8 8 9 8 8 8 7
11 11 8 8 8 7 5 4 4 5 4 2 2 2 3 1 1 1 2 4 3 3 3 2 1 1 1 2 2 3 2 4 3 3 3 2 1 0 4 4 1 1 5 3 4 5 4 3 4 4 4 5 5 4 4 4 5 4 4 4 5 6 4 5 6 5 6 5 6 8 6 6 6 6 6 7 6 6 5 6 6 6 7 7 7 7 7 8 8 7 7 8 8 8 8 8 7
8 11 8 8 8 7 4 5 4 3 2 2 2 3 2 1 1 2 2 5 4 4 2 3 3 2 3 4 4 3 1 1 3 2 1 2 3 1 1 1 2 2 2 4 5 3 3 2 4 4 4 5 5 4 4 4 5 4 4 4 6 6 4 5 5 6 6 5 5 6 6 5 6 6 6 6 7 6 6 6 6 6 6 7 7 7 7 7 8 7 7 8 8 8 7 8 7
8 11 9 9 7 5 3 5 3 3 3 1 4 0 3 2 1 1 3 5 5 3 3 4 4 3 4 4 3 2 1 1 0 1 0 3 4 5 1 2 3 3 2 5 4 2 2 4 4 4 5 5 5 5 4 4 4 4 4 5 6 6 5 5 6 6 6 5 5 6 6 5 6 5 6 7 6 6 6 6 6 6 6 7 7 7 6 7 7 6 8 8 8 8 8 7 7
11 12 10 8 6 5 4 3 2 2 2 3 2 3 0 2 1 1 5 6 5 4 4 4 4 4 4 3 3 2 1 1 1 3 3 3 0 3 2 1 1 3 2 4 4 1 4 4 3 5 4 5 4 4 4 4 4 5 4 6 5 6 4 5 6 6 5 5 4 5 5 5 5 5 7 7 7 6 6 6 6 6 6 7 7 6 7 7 7 7 8 8 8 7 8 7 7
12 9 10 5 5 5 3 3 1 3 2 1 3 1 2 3 3 3 6 5 4 3 2 3 4 4 3 2 1 1 4 2 2 4 3 2 1 1 1 1 2 3 2 4 3 2 4 3 1 5 4 4 4 4 4 4 3 4 4 6 5 6 5 5 6 5 5 4 4 5 6 5 5 5 6 7 7 6 6 6 6 5 6 7 7 6 8 6 6 7 8 7 7 7 7 8 7
7 2 8 7 4 4 2 2 1 2 2 1 2 2 2 7 3 7 5 5 4 3 3 4 3 4 3 2 2 3 2 3 4 4 2 1 2 1 1 1 1 2 2 2 3 4 3 2 2 4 3 4 3 4 4 4 3 3 4 6 4 5 5 4 5 5 5 5 4 5 6 6 5 6 5 6 7 6 6 6 5 6 6 7 7 6 7 6 7 8 8 7 8 8 8 8 7
2 4 2 2 1 1 1 1 2 2 2 3 1 1 1 4 6 5 5 5 5 4 4 5 4 3 3 2 2 2 3 4 2 0 1 3 3 2 2 1 1 3 0 3 4 3 4 3 2 4 3 3 4 4 3 3 4 3 4 4 3 4 3 5 5 5 5 6 5 5 6 6 5 6 5 6 7 5 5 6 6 5 7 7 6 5 6 6 6 8 8 8 7 7 7 8 7
3 2 1 2 4 1 2 1 4 2 1 3 1 0 3 4 6 6 5 5 4 4 3 3 2 2 2 2 2 2 3 1 3 3 3 3 3 3 3 1 3 1 1 4 5 1 5 4 3 4 3 3 4 4 3 3 3 3 3 4 3 4 5 6 5 5 5 5 5 5 5 6 5 6 6 6 6 6 5 5 6 6 7 6 6 5 6 7 7 7 8 8 9 8 8 8 7
3 3 0 2 3 2 2 1 1 1 2 3 0 2 4 2 4 6 5 5 5 2 3 3 3 2 1 2 2 1 0 1 1 3 1 3 4 4 2 3 3 2 3 2 4 4 4 4 4 3 3 2 3 4 4 4 4 4 3 3 3 4 5 6 5 5 5 5 5 5 5 6 5 6 6 7 5 6 6 5 6 6 6 6 6 6 6 6 7 7 7 8 7 8 9 9 8
3 3 2 1 1 2 1 0 0 3 1 1 3 0 3 4 8 5 5 7 4 4 4 3 3 2 2 1 1 1 1 0 0 5 6 4 3 2 3 5 4 3 4 1 4 4 5 5 4 1 0 2 3 4 4 4 4 4 3 3 3 5 4 5 4 4 4 5 5 5 5 5 5 6 6 7 5 6 6 5 6 6 7 6 6 5 6 6 6 7 8 8 8 8 8 7 9
2 1 2 1 0 3 2 1 1 4 0 2 3 4 6 7 6 6 8 5 5 4 4 3 1 0 0 1 0 0 0 1 5 4 4 3 2 2 3 3 2 1 2 4 4 4 4 4 4 1 4 4 4 5 4 4 4 4 5 5 4 5 4 4 4 4 4 5 5 5 5 5 6 5 5 7 6 6 6 6 6 6 6 6 6 6 5 7 7 8 8 9 8 8 8 6 9
3 4 2 2 2 1 1 1 1 3 3 3 3 3 4 5 4 6 5 6 5 4 4 2 1 1 1 1 1 1 2 4 4 5 3 3 3 3 2 3 3 2 3 3 5 3 4 3 3 4 4 4 4 4 4 4 4 5 6 5 5 4 4 3 4 5 4 4 3 4 4 5 5 5 5 7 6 6 6 6 6 6 6 6 7 7 7 7 9 10 9 10 9 9 7 7 7
5 3 1 1 1 2 1 2 1 1 2 3 3 3 4 6 6 4 10 5 3 3 3 3 3 2 2 1 2 3 3 4 4 6 4 3 3 2 2 3 2 4 1 4 4 4 4 3 5 4 4 5 4 4 4 4 3 3 3 3 4 2 3 4 3 3 3 2 3 3 4 5 5 4 5 6 5 6 5 6 6 6 6 6 6 6 6 7 8 8 8 7 9 9 7 8 7
3 3 0 2 6 1 1 2 1 0 2 3 3 4 7 2 6 6 7 4 4 5 4 4 4 4 3 3 3 4 3 1 5 5 4 3 3 3 1 1 1 4 2 4 4 5 4 4 4 4 5 6 5 4 3 3 3 1 1 2 2 2 4 3 2 1 1 2 2 3 3 4 5 4 5 5 5 6 5 6 6 6 6 6 6 6 6 7 7 8 8 8 6 8 7 9 8
3 3 2 0 1 1 2 1 1 1 0 5 5 5 5 2 1 5 5 3 1 1 1 1 2 4 1 3 5 4 2 2 3 4 4 4 3 2 2 2 2 1 4 3 5 5 3 4 4 5 5 5 4 3 3 2 1 1 0 1 0 2 3 2 2 1 1 2 2 3 3 3 4 4 4 5 4 6 5 5 6 6 6 6 6 6 6 7 6 8 8 8 9 5 5 7 9
5 6 5 1 1 3 1 1 3 3 1 2 3 4 6 1 1 2 1 0 1 1 0 1 1 2 2 4 3 2 2 2 1 4 4 5 5 4 2 2 2 2 4 5 4 4 3 5 4 5 5 5 4 3 3 2 3 3 4 3 1 1 0 1 1 3 3 3 3 4 3 3 4 4 4 5 5 6 5 6 5 6 6 6 6 6 6 7 7 7 8 8 8 9 7 7 9
4 4 2 1 2 1 2 2 4 2 1 2 4 3 3 3 2 1 1 1 0 2 1 0 1 0 2 3 2 1 3 2 1 2 4 3 3 5 4 3 3 3 2 4 4 3 3 5 4 5 5 4 3 3 4 2 3 4 4 6 1 1 1 1 4 4 3 3 3 3 3 3 3 4 4 5 5 5 5 5 5 6 6 6 6 6 6 7 7 6 7 8 8 7 9 7 7
1 2 2 1 2 3 4 5 4 1 2 1 2 1 1 0 1 2 3 2 2 3 3 4 4 4 2 2 3 4 3 1 1 1 2 2 1 3 4 3 3 1 3 4 4 4 5 5 5 5 5 4 3 4 4 3 3 3 4 5 4 4 5 4 5 3 4 3 4 3 3 2 3 3 3 4 5 5 5 5 5 5 5 6 6 5 5 5 6 6 6 6 6 7 7 7 7
0 1 2 3 2 2 4 5 3 1 0 2 1 1 1 1 1 1 1 1 4 2 3 2 4 5 4 4 5 5 5 4 1 2 1 2 3 3 4 5 5 3 4 4 4 5 6 5 4 5 5 4 3 3 4 5 3 4 3 3 2 3 4 2 3 2 3 2 3 3 3 1 3 3 3 3 4 4 4 4 4 5 5 5 5 5 5 5 5 4 6 6 5 5 7 6 8
1 1 2 2 3 3 3 4 2 1 2 0 2 2 0 1 2 1 1 1 5 4 2 3 3 5 5 3 4 4 4 4 4 3 4 3 1 1 1 5 4 5 5 5 4 4 5 5 5 5 5 4 3 3 4 4 3 3 3 4 4 4 3 3 4 2 3 3 4 3 3 2 2 3 2 2 3 4 4 4 4 4 5 5 5 5 5 5 5 5 5 6 5 5 5 5 6
0 1 2 2 3 3 4 3 5 0 1 1 1 5 1 1 2 1 2 1 2 4 4 3 3 3 4 2 4 3 4 4 1 2 1 2 2 3 3 4 6 6 5 5 4 4 5 5 5 5 5 4 3 3 3 3 3 3 3 3 4 3 4 4 4 3 4 4 4 4 3 3 3 3 2 2 3 4 4 3 4 4 5 4 5 5 5 5 6 6 6 6 4 5 4 5 5
0 2 1 2 2 1 1 1 3 0 2 1 4 3 1 1 2 1 2 0 1 1 5 4 3 4 2 3 3 3 5 3 1 0 0 1 2 3 4 6 5 5 4 5 5 6 5 4 5 5 5 4 3 3 3 3 3 3 4 3 3 3 3 4 4 4 4 4 4 4 4 5 3 3 3 3 4 4 4 3 4 4 4 4 5 5 5 5 5 5 6 6 5 4 4 5 7
1 1 1 1 1 1 1 1 1 2 1 1 0 1 2 1 1 3 3 3 2 1 2 3 3 4 4 3 3 2 3 4 4 3 2 2 3 5 4 5 5 5 4 5 5 5 5 5 5 5 5 4 3 3 3 3 2 3 3 3 2 2 3 3 4 4 4 4 4 4 5 5 4 3 5 3 4 4 4 4 4 5 4 4 5 5 5 5 5 6 6 6 6 3 3 4 6
0 0 1 1 1 0 0 0 1 1 1 1 0 1 1 0 1 2 2 3 3 3 1 2 5 5 4 5 3 3 2 1 0 1 2 3 5 4 5 4 6 5 4 5 5 5 5 5 6 6 4 4 3 3 3 2 2 2 2 1 2 1 2 3 3 3 4 4 4 4 5 5 5 4 4 4 4 5 4 4 4 4 4 4 4 4 4 4 5 5 5 6 6 3 4 4 5
0 1 1 3 0 1 1 0 2 1 1 1 2 1 1 3 4 3 5 5 2 1 1 2 1 2 5 4 4 3 2 1 1 0 0 0 2 5 5 5 6 5 5 5 5 5 5 6 7 7 5 4 3 3 3 2 2 2 2 2 2 1 1 1 2 3 3 3 4 4 5 5 5 5 5 4 4 4 4 4 4 5 4 4 4 4 4 4 5 4 5 6 4 4 4 4 5
3 2 3 2 1 2 0 1 1 0 1 1 2 2 1 2 0 3 5 4 5 4 3 1 1 0 1 4 4 4 3 2 1 1 0 1 1 2 6 6 6 6 6 6 6 5 4 5 6 7 6 5 4 3 3 3 3 2 1 1 2 2 2 2 2 2 3 3 3 3 4 4 4 3 4 3 3 4 3 3 4 4 4 4 4 4 4 4 4 5 6 5 4 4 4 4 5
2 2 1 0 1 1 1 1 1 2 3 1 2 0 1 1 2 1 5 5 5 4 3 2 1 0 0 1 1 1 2 3 4 2 2 2 3 2 2 4 5 6 6 6 6 5 5 5 6 8 6 5 4 3 3 2 3 3 2 2 1 3 2 3 2 2 3 3 3 3 3 3 3 3 4 3 4 4 4 3 4 4 4 4 4 4 4 4 4 5 6 3 5 3 4 5 5
3 0 1 1 0 0 1 1 0 2 3 4 0 2 3 2 0 3 4 4 3 3 3 2 1 3 1 1 3 4 4 4 5 4 3 3 2 1 2 2 4 5 6 6 6 5 5 5 5 7 7 6 5 4 3 3 3 3 2 1 0 1 1 2 3 2 2 2 2 2 3 2 2 2 3 3 3 3 4 4 3 4 4 4 4 4 4 4 4 5 6 4 5 3 4 6 5
1 3 2 1 0 1 2 1 0 0 1 4 0 3 2 0 1 1 1 2 3 4 4 4 4 4 4 4 4 5 5 5 5 4 4 3 4 2 3 3 4 4 5 6 6 6 6 6 6 7 6 5 5 5 4 3 3 3 3 1 2 2 1 0 1 1 2 2 1 2 2 3 2 3 3 2 3 3 3 3 3 4 4 4 4 4 4 4 4 4 5 5 5 4 5 5 6
1 1 1 0 2 1 1 1 1 0 1 2 1 1 2 2 4 1 1 2 5 5 5 5 4 4 5 5 5 5 5 5 5 4 3 3 4 5 4 2 3 4 5 5 6 5 6 6 7 8 7 6 5 5 5 4 4 3 3 2 1 1 0 1 0 1 1 2 2 1 2 3 3 2 2 2 3 4 4 4 4 4 4 4 5 4 4 4 4 5 4 4 5 5 5 5 6
0 2 1 1 0 1 1 1 2 3 3 3 2 1 3 5 5 1 4 4 5 6 5 5 4 5 6 6 5 4 4 4 3 4 4 4 4 4 5 4 2 2 4 5 6 6 6 5 6 7 7 7 6 5 4 4 4 3 3 2 2 0 0 0 0 0 1 2 1 2 2 2 3 3 3 3 3 4 4 4 4 4 4 5 4 4 4 4 4 4 3 4 4 5 5 6 6
1 0 2 0 1 1 0 0 1 1 4 3 6 2 4 3 2 8 5 7 6 6 5 6 6 3 2 2 2 4 5 5 4 4 4 5 5 5 6 6 5 3 2 4 5 5 6 5 6 6 5 5 5 5 5 5 4 4 4 3 3 2 1 1 1 0 1 2 1 1 2 2 3 3 2 2 3 3 4 4 4 4 5 4 4 4 4 4 5 4 4 5 5 5 6 6 5
0 1 0 1 1 1 1 0 1 1 1 1 2 6 3 1 2 6 5 5 6 5 7 6 5 3 2 2 3 3 4 4 4 4 4 5 5 5 5 5 5 4 4 4 4 5 5 5 5 6 8 6 6 5 5 5 5 4 5 3 3 3 2 1 1 0 0 1 1 1 1 1 1 3 2 1 2 3 4 4 4 4 4 4 4 5 4 4 4 4 4 4 5 6 7 7 7
0 1 2 2 1 0 1 3 1 0 1 1 0 8 7 5 1 3 6 5 5 4 4 4 4 4 2 2 3 4 4 3 4 4 5 5 5 5 5 4 4 5 5 5 4 4 5 5 5 6 6 6 6 5 5 5 4 5 5 4 3 3 2 2 0 1 1 1 1 1 1 0 3 3 2 1 2 2 2 4 4 4 5 4 4 4 4 4 4 4 4 4 5 6 7 7 7
Wind_Direction
289 261 256 248 255 268 318 252 73 44 68 61 67 51 65 39 42 68 81 191 51 69 67 68 32 33 64 95 109 94 28 59 30 310 55 193 177 226 249 241 268 308 299 292 281 35 43 9 6 4 6 8 10 11 16 16 19 23 22 22 23 25 22 21 20 17 19 16 20 19 16 17 16 15 14 13 12 15 11 6 11 9 9 10 9 8 7 5 4 7 5 0 360 1 4 6 7
279 258 252 259 249 304 220 317 94 101 82 82 59 61 66 75 61 59 61 56 58 82 62 54 74 91 101 115 132 126 70 62 58 89 173 154 167 196 202 161 264 269 259 264 297 71 42 16 4 2 5 7 10 13 18 17 21 21 20 21 20 21 22 21 20 18 17 17 17 18 15 15 16 14 14 13 10 14 9 7 7 5 6 7 7 9 6 4 3 5 3 1 357 356 359 1 1
292 274 266 233 254 226 302 209 114 91 83 72 61 66 82 68 68 69 64 71 82 81 99 108 106 36 100 156 90 0 101 65 82 109 95 168 183 116 172 231 243 245 226 184 317 71 49 18 5 3 6 7 11 14 19 19 20 21 20 20 19 19 20 20 18 17 15 15 15 16 14 15 16 14 13 10 11 10 12 7 3 5 4 2 3 5 5 4 360 1 1 359 360 355 356 358 354
290 278 280 315 290 14 50 16 42 72 85 103 101 65 67 80 80 80 81 85 71 113 227 91 30 9 55 70 52 103 91 87 56 313 118 58 38 63 21 348 283 252 113 62 47 82 56 23 8 5 6 7 12 16 20 20 20 21 20 20 20 19 19 19 17 16 15 14 14 14 15 13 16 12 13 10 8 7 9 7 3 2 1 2 359 1 359 358 359 356 356 357 356 353 351 352 352
284 264 218 266 260 43 61 40 45 48 63 57 103 95 86 97 103 98 103 114 114 80 47 146 135 57 75 57 349 45 65 109 85 35 78 55 45 23 342 350 295 330 54 350 47 77 51 30 12 9 7 8 13 16 20 20 21 21 20 19 19 19 18 17 16 16 15 14 15 14 14 14 13 12 12 10 8 6 8 5 3 0 359 359 356 355 355 355 354 353 351 352 352 349 349 351 349
255 245 28 30 55 162 60 73 56 60 62 95 104 91 85 90 100 107 107 107 103 76 355 46 42 126 57 27 11 81 336 358 88 57 6 70 45 8 355 293 319 312 29 351 45 75 64 34 19 11 9 11 14 16 17 18 18 18 17 17 17 18 17 16 16 15 15 14 14 14 14 13 13 12 11 10 8 7 6 3 4 0 358 355 357 352 353 353 350 349 349 349 348 349 347 345 343
296 325 102 76 54 14 76 80 72 72 59 88 97 108 103 105 113 129 116 114 87 87 52 54 87 121 112 131 84 54 45 15 47 42 42 336 49 2 1 303 309 19 359 353 46 82 67 44 28 15 14 15 17 17 16 15 15 14 14 14 15 14 14 14 14 14 13 13 12 11 10 10 10 10 9 8 7 6 4 3 3 359 359 356 357 354 351 350 349 348 347 346 347 345 345 343 342
241 81 24 75 69 60 71 73 73 52 54 43 55 90 91 85 41 43 50 37 60 47 52 94 34 68 110 182 81 176 104 78 84 44 20 32 31 347 294 295 354 4 341 29 32 93 70 59 37 23 18 18 18 18 17 15 13 11 10 12 12 12 12 12 11 11 10 10 9 7 7 7 7 7 7 8 6 4 3 3 1 359 356 356 356 354 350 349 348 347 346 345 346 345 344 343 342
210 122 140 76 80 76 83 75 87 75 85 75 71 63 59 51 24 70 75 77 91 58 40 16 13 195 87 75 83 108 62 91 95 119 341 65 10 311 280 327 14 3 26 20 26 29 93 83 54 40 23 15 17 15 17 15 12 9 9 9 10 10 11 10 9 9 8 7 6 4 2 3 6 7 8 7 5 2 1 1 360 356 354 353 354 353 350 349 347 345 345 344 344 344 343 342 341
89 249 62 92 118 93 101 94 88 69 77 70 74 67 64 91 58 53 88 66 58 70 35 4 34 80 95 92 110 75 68 60 142 123 69 96 319 296 326 352 48 6 43 11 8 39 102 98 90 60 31 7 8 13 9 12 11 9 7 8 10 11 10 9 8 6 6 7 4 2 1 3 4 5 6 6 4 359 359 358 358 354 353 353 353 353 351 350 348 347 345 344 344 344 343 342 342
70 35 160 89 79 92 84 106 104 109 100 95 76 62 52 52 63 64 64 80 48 61 55 341 83 55 89 69 65 166 100 71 55 55 23 37 235 41 348 326 51 39 43 355 2 57 15 135 87 67 27 354 338 356 357 7 12 8 6 8 11 12 10 8 6 7 5 6 4 0 0 1 359 1 1 2 1 358 355 357 356 353 354 354 354 354 352 351 350 350 348 347 345 344 344 343 344
123 44 46 84 77 103 110 105 105 109 114 105 74 53 357 23 59 78 80 84 74 68 42 2 43 342 89 101 111 136 113 69 60 40 21 315 26 61 15 332 45 54 53 339 27 41 57 29 134 78 12 12 5 9 310 356 16 10 5 10 11 11 10 5 7 8 6 3 1 359 357 356 357 357 357 359 358 355 355 356 354 353 353 356 355 354 353 352 353 352 351 350 349 347 347 346 346
73 67 87 83 90 90 108 105 115 120 105 66 93 77 338 55 45 54 78 62 31 64 39 23 327 347 81 80 133 118 85 83 47 57 332 343 344 68 358 344 65 32 33 352 51 1 56 20 19 2 28 9 6 358 3 33 10 12 8 9 13 11 7 6 7 7 6 5 1 357 354 355 358 356 355 2 358 354 354 355 354 351 353 354 354 353 353 354 353 352 352 352 351 350 349 348 347
66 69 109 102 116 106 100 110 139 117 78 98 80 78 32 57 42 25 352 80 46 53 33 0 1 344 88 115 107 81 80 42 54 33 345 330 327 124 91 287 101 42 58 355 71 16 16 33 359 359 43 12 359 355 356 14 13 8 12 8 15 12 6 6 3 7 6 6 1 356 354 358 3 356 353 7 357 353 352 355 352 352 352 353 354 353 354 354 352 352 351 351 351 351 351 349 348
67 60 79 89 94 105 150 131 120 100 105 109 97 99 95 47 33 60 28 71 71 53 37 50 331 312 17 325 57 56 50 47 26 85 275 267 264 198 149 242 132 137 97 31 60 85 51 25 22 345 32 18 356 342 348 335 359 2 15 6 18 17 6 7 1 6 7 7 3 356 359 1 4 353 354 7 355 352 350 356 351 352 351 353 353 353 353 353 352 351 351 351 350 351 352 351 351
84 109 104 102 90 91 70 84 97 104 109 108 100 88 91 73 17 48 24 43 104 87 341 54 33 36 58 67 85 75 55 38 295 278 231 267 281 220 170 185 83 134 122 101 37 45 44 69 7 2 30 12 353 330 355 341 4 354 148 280 359 1 5 6 1 7 8 9 4 356 2 0 11 350 357 9 354 351 350 353 353 352 353 354 354 352 353 353 352 351 352 351 351 353 353 356 351
324 92 92 81 88 64 56 127 149 101 115 107 129 161 107 81 62 63 242 276 93 71 69 37 64 44 71 76 97 69 56 255 321 336 24 16 346 22 21 48 21 46 47 99 81 54 6 19 32 14 31 18 350 327 4 348 10 358 13 17 358 3 8 5 1 10 17 18 7 356 2 350 5 345 357 2 356 346 354 353 355 353 355 355 355 353 353 354 352 353 354 353 354 355 357 355 350
213 68 79 70 67 60 32 58 64 113 115 125 152 80 109 104 116 96 225 75 92 108 92 113 72 57 75 87 77 146 222 74 11 20 35 18 1 25 28 23 46 34 39 2 55 68 6 28 26 12 30 16 5 337 351 6 16 343 22 23 353 11 8 14 2 12 25 26 11 357 360 349 350 347 355 358 357 348 355 354 355 355 358 355 356 356 353 355 353 354 354 355 357 356 357 346 343
46 58 58 82 53 60 59 91 101 111 113 128 104 0 85 94 157 149 214 135 134 126 116 140 113 127 133 121 139 72 23 62 45 19 45 30 11 28 33 17 49 32 30 354 299 84 45 38 39 6 10 27 23 344 342 30 5 358 14 23 357 15 357 13 9 15 27 26 17 3 353 346 343 352 356 358 358 354 357 358 356 358 359 356 357 358 356 353 355 353 354 356 356 353 350 335 342
30 94 85 69 67 71 57 61 77 92 112 103 102 59 82 66 35 146 239 130 201 128 144 167 140 145 141 145 119 133 125 131 107 62 59 44 30 18 47 39 39 57 26 271 25 50 41 44 38 9 1 12 35 350 340 34 8 10 11 26 354 18 350 1 16 11 28 28 24 6 347 348 344 353 3 358 355 350 356 358 355 356 357 354 356 355 355 351 354 350 353 354 351 343 339 335 337
14 70 82 109 89 87 58 71 80 87 96 102 87 105 94 81 42 297 89 162 156 83 41 56 106 115 124 135 137 173 110 71 99 109 80 48 25 26 21 98 85 72 350 54 3 40 48 39 47 357 18 7 24 358 351 17 29 24 14 11 1 22 342 1 18 5 27 29 23 7 347 351 347 354 5 355 347 356 351 355 348 348 350 342 355 345 350 347 345 339 344 349 345 344 340 337 329
89 70 89 89 81 76 62 57 60 74 81 107 134 103 84 117 208 359 13 23 43 37 100 75 70 74 79 79 77 140 284 112 120 61 77 71 19 17 32 340 59 53 310 44 31 13 48 26 28 352 38 19 12 6 5 18 32 31 18 352 15 18 342 5 22 4 22 32 27 5 347 354 351 349 2 354 344 356 347 356 345 347 348 345 354 347 351 350 344 343 347 351 349 343 341 334 329
95 59 66 71 77 92 79 59 356 110 97 68 72 86 131 231 88 64 347 51 98 53 77 84 84 69 76 76 62 264 235 60 78 92 64 100 72 23 26 340 45 45 296 61 49 20 49 39 5 32 27 13 6 8 11 30 23 30 24 348 33 8 3 4 21 13 19 35 32 5 345 357 348 346 357 352 345 350 346 357 347 351 348 351 354 350 355 350 343 345 347 352 346 345 341 335 340
85 94 82 71 75 82 79 60 34 54 66 72 69 192 64 339 104 33 282 119 104 112 89 94 91 104 108 247 195 225 262 125 6 104 111 23 123 165 121 263 262 205 78 61 55 56 40 17 37 30 37 14 350 17 21 19 26 27 21 346 39 11 16 3 20 21 14 34 35 5 343 359 345 349 357 351 346 345 350 356 347 352 348 353 355 351 356 347 341 340 345 347 344 344 338 338 340
80 90 89 94 86 88 91 83 74 75 80 92 213 97 72 27 35 290 187 132 147 136 137 138 131 187 219 225 246 237 221 171 194 140 168 201 130 244 187 225 312 305 57 35 60 49 43 20 43 27 48 16 346 17 33 14 25 25 18 354 31 20 11 15 23 29 8 35 37 8 346 2 346 355 356 350 341 340 350 352 351 352 348 356 354 347 353 342 336 335 344 343 340 335 335 333 334
69 100 103 99 96 101 94 93 88 91 83 5 273 97 119 89 46 249 170 140 144 135 176 165 178 218 222 219 228 221 240 304 145 212 152 142 175 209 215 177 207 51 55 70 61 47 67 30 64 42 47 25 350 24 25 26 16 21 10 10 42 12 12 22 29 25 15 35 39 10 349 1 350 353 353 346 343 336 348 349 348 350 354 358 351 341 345 340 331 334 343 340 335 332 330 327 326
119 104 101 102 107 104 87 86 86 76 72 345 344 259 150 138 241 185 140 143 140 164 192 181 195 226 224 222 208 210 199 218 189 126 38 179 204 194 133 50 42 68 53 69 66 24 80 34 59 54 54 32 357 27 5 29 18 14 18 21 43 2 21 25 27 28 12 34 48 19 351 357 356 356 351 345 338 333 347 346 348 350 358 0 343 330 342 336 329 334 346 336 332 332 329 322 327
107 111 102 97 102 103 124 101 77 233 105 356 359 321 87 161 161 220 158 141 160 189 196 192 193 212 238 229 194 199 180 223 163 139 198 250 87 75 48 86 45 53 50 90 90 16 61 45 37 57 60 45 19 23 6 18 17 11 25 24 38 360 29 23 30 26 15 19 41 32 359 348 2 356 350 346 341 337 347 345 350 354 4 349 334 325 341 333 331 340 342 334 331 330 329 332 332
133 135 98 124 121 91 44 59 52 326 94 330 71 310 267 178 239 133 139 140 166 205 221 219 212 211 231 232 232 197 209 165 147 162 203 216 118 126 83 78 80 70 58 108 119 119 79 95 11 67 49 63 29 27 7 10 16 21 33 26 35 5 26 29 31 23 24 11 23 38 8 342 9 356 348 348 340 333 343 348 353 358 3 338 324 331 340 331 340 345 338 341 332 337 335 334 327
160 115 132 131 143 86 64 162 120 268 87 291 88 46 204 194 186 128 137 152 178 176 230 236 219 220 204 205 198 208 222 156 186 196 192 193 132 129 123 76 103 113 82 114 102 70 94 56 30 90 50 78 50 38 14 7 8 27 49 31 36 22 15 28 34 23 31 14 11 33 14 335 14 354 351 347 338 337 342 352 354 357 354 332 322 339 343 346 346 345 341 339 342 341 337 330 331
169 135 230 153 159 14 72 358 334 239 165 213 245 70 103 146 144 142 159 163 172 201 218 219 223 192 181 182 178 239 252 194 189 180 177 171 162 140 142 141 85 108 150 100 87 100 95 96 24 69 50 59 75 48 21 4 20 29 57 46 38 45 21 26 41 25 35 18 9 21 12 336 18 354 354 348 334 343 341 345 359 356 345 331 328 347 349 348 352 346 341 342 340 335 335 329 335
131 111 356 8 85 241 98 43 12 37 205 182 298 286 30 151 148 158 169 166 184 209 247 260 230 186 179 182 201 212 234 200 161 177 200 190 159 145 124 124 96 74 120 104 109 100 91 69 52 87 52 35 72 60 24 15 20 19 67 71 34 65 40 35 31 34 32 31 10 7 7 338 20 356 355 349 335 345 349 343 357 353 346 330 333 349 357 352 353 347 342 343 339 337 338 334 340
202 147 204 359 97 157 166 101 36 123 281 214 179 296 326 125 170 158 163 181 175 216 236 248 247 231 207 190 199 197 33 242 206 214 191 125 111 117 137 136 127 130 88 87 115 119 123 117 74 42 57 30 85 71 25 30 8 18 39 79 67 55 57 50 23 32 30 39 8 357 3 341 14 358 356 350 342 347 348 346 353 350 345 338 331 7 358 355 351 347 341 345 337 332 335 331 347
49 59 108 248 54 196 193 108 289 288 255 319 181 229 257 290 152 167 174 176 177 194 226 245 231 205 190 183 199 203 218 108 321 65 64 62 67 81 86 89 110 123 100 93 93 86 93 95 91 95 28 59 74 80 46 35 12 11 1 48 78 63 72 64 36 26 34 41 13 352 360 344 6 355 359 351 348 351 344 346 347 348 349 343 339 10 356 353 348 351 343 343 338 341 332 339 351
20 22 114 98 339 65 88 77 357 333 180 233 261 225 254 262 146 181 179 190 177 196 209 221 255 111 117 174 191 220 99 37 77 98 91 99 101 105 95 111 111 100 125 126 100 107 111 112 128 94 59 26 50 61 43 32 15 8 343 39 24 74 63 81 56 34 28 47 15 349 354 356 0 349 6 352 353 350 346 348 348 350 351 350 342 358 356 354 355 353 352 341 344 344 329 354 349
23 2 34 25 116 16 50 100 46 29 323 322 250 247 320 320 294 174 180 175 185 204 198 222 190 185 206 204 191 103 76 72 91 90 74 82 74 98 117 134 133 143 132 119 114 117 106 120 105 90 64 42 42 46 46 30 21 11 349 30 358 58 48 53 62 46 17 48 16 358 351 8 359 349 10 352 354 348 354 347 349 349 354 353 342 357 1 359 360 353 358 348 348 343 341 354 342
279 266 53 43 329 109 151 87 33 307 299 233 231 330 291 280 249 195 160 157 193 205 211 192 202 196 166 94 90 73 69 104 119 94 86 77 103 98 94 119 146 124 150 129 134 123 111 106 94 78 81 64 46 31 31 33 18 8 352 33 354 34 60 35 55 33 36 7 47 5 14 1 2 355 5 354 358 347 355 345 347 348 353 352 343 358 1 0 2 358 352 344 349 347 345 351 344
316 304 221 80 42 35 32 81 153 160 16 301 37 340 307 311 27 75 122 142 186 208 209 214 221 169 147 140 96 77 76 118 114 113 124 117 100 114 103 135 173 139 175 141 127 100 86 79 84 81 74 72 51 35 36 34 29 69 333 342 18 343 69 46 17 0 51 18 44 34 32 358 7 359 1 356 358 346 353 354 351 347 353 350 342 357 0 5 359 3 354 344 356 351 347 345 342
353 1 310 199 13 245 57 112 186 119 291 275 21 338 293 51 32 101 142 180 182 72 82 78 124 104 108 95 88 84 76 63 100 122 110 121 130 146 156 176 174 208 134 110 100 104 114 107 88 83 70 81 65 33 41 20 351 354 191 293 75 321 105 144 176 208 81 57 35 58 52 17 7 1 1 359 2 347 355 0 354 345 352 347 343 359 359 5 1 3 360 345 345 355 341 346 351
26 3 42 71 328 47 330 198 280 165 173 274 348 327 289 110 14 81 13 108 119 111 74 103 14 122 84 72 87 100 119 98 84 123 144 147 163 158 156 175 166 102 105 105 129 124 125 90 93 91 81 72 56 26 28 3 2 352 325 223 226 65 1 176 63 69 27 45 25 45 56 46 17 4 2 5 360 349 355 3 356 343 349 349 347 357 2 2 1 0 358 346 353 348 356 350 2
23 35 31 17 9 348 179 303 327 276 219 198 281 263 290 171 181 216 223 190 206 202 173 250 167 72 83 90 113 129 94 103 71 122 126 139 143 157 165 178 112 120 153 128 127 126 98 101 94 93 88 87 73 33 0 353 13 4 354 349 50 139 286 344 28 7 17 11 18 23 10 67 36 8 13 7 2 350 355 359 2 342 351 350 345 1 9 360 358 356 355 347 357 354 344 350 359
55 22 19 0 323 312 316 311 325 22 321 213 28 56 280 148 53 131 185 135 226 162 170 209 189 170 156 183 172 122 115 109 141 107 109 116 113 106 121 121 125 166 151 124 119 107 104 103 102 95 86 73 68 29 5 360 34 33 1 6 359 15 356 19 5 345 355 7 351 7 360 68 56 26 18 14 2 357 355 358 358 351 351 350 340 9 4 358 351 353 351 346 344 358 346 345 352
28 297 319 337 320 312 294 308 7 342 119 296 3 110 266 318 185 166 158 258 140 156 207 197 164 151 167 215 145 162 158 165 124 131 148 186 170 162 173 157 156 171 110 106 96 94 98 104 100 99 100 90 66 66 27 5 34 30 3 358 359 50 2 344 351 2 8 10 341 7 348 19 92 61 28 27 6 357 350 355 360 353 347 342 340 12 2 349 340 344 345 340 334 359 349 358 356
85 276 316 300 295 302 325 332 283 246 244 11 31 86 151 247 271 205 178 248 142 173 164 108 146 148 169 172 119 119 138 139 164 192 183 155 138 146 100 131 144 124 121 111 110 109 114 119 110 99 95 92 66 66 41 28 29 19 7 21 3 41 2 333 342 343 11 18 350 3 346 347 70 86 61 42 20 8 350 353 358 348 342 333 349 7 348 333 341 341 343 330 328 13 352 357 350
166 234 299 322 354 345 325 309 289 250 81 304 359 343 74 265 255 266 194 229 93 106 114 98 107 136 130 114 123 151 142 149 160 168 183 149 159 160 145 122 107 113 124 127 129 122 108 107 104 103 104 100 93 69 75 35 20 24 41 41 4 17 2 355 337 14 18 9 350 347 351 349 41 59 60 65 38 23 350 339 2 343 337 336 358 353 338 344 347 341 337 329 336 14 351 355 344
173 284 233 299 315 298 300 329 319 325 56 288 325 343 91 293 249 172 305 75 124 119 126 135 140 130 134 124 123 146 146 129 150 220 157 162 143 132 114 120 118 126 132 124 113 113 118 119 117 114 105 103 95 77 75 63 35 18 58 23 22 2 359 339 341 355 22 356 346 347 352 345 19 32 36 41 50 21 340 345 1 342 334 348 0 347 345 348 344 338 330 322 329 19 358 7 354
228 293 315 275 252 266 240 234 286 28 13 244 263 338 105 290 245 197 162 222 160 144 123 135 135 145 150 125 142 145 122 153 186 194 196 194 153 133 128 142 135 117 122 124 126 129 137 130 126 111 117 109 100 86 77 93 82 53 58 17 12 13 349 350 352 347 7 353 351 349 2 333 10 13 48 12 51 17 340 358 359 347 348 0 351 351 340 343 333 332 322 322 322 360 11 22 346
40 219 288 159 326 209 317 289 49 68 266 226 186 40 61 136 299 281 114 121 125 144 145 148 165 181 168 159 137 116 104 101 136 186 218 195 145 135 149 152 135 141 144 137 142 137 143 139 126 120 119 123 119 116 90 64 88 80 64 72 349 28 9 6 341 341 8 348 352 352 351 349 350 8 35 8 26 5 348 357 350 351 344 349 345 336 331 328 319 315 318 311 309 346 23 12 336
324 320 342 49 274 53 356 6 4 212 254 215 104 53 13 230 231 178 145 163 141 110 121 132 115 151 159 145 138 136 123 126 215 184 180 188 178 162 180 166 142 151 170 159 156 150 147 144 138 133 133 125 132 126 124 114 79 72 63 20 20 349 23 359 341 5 13 1 347 355 351 351 345 1 9 8 11 358 350 349 350 342 339 338 334 335 323 323 314 321 317 311 327 4 1 358 341
324 31 3 41 17 26 326 310 237 289 307 212 121 240 193 245 260 148 147 142 148 136 131 135 137 233 135 151 142 133 151 166 162 169 167 211 239 181 181 162 156 162 168 161 158 155 154 151 149 136 141 136 130 121 136 121 104 96 98 77 358 358 356 10 346 47 0 12 358 350 339 349 345 360 358 3 6 353 342 341 341 330 325 333 326 325 323 319 323 336 314 310 356 341 348 348 322
272 176 88 174 102 125 16 349 335 236 265 228 299 63 237 30 248 174 136 142 129 134 137 147 175 168 179 82 113 182 209 195 160 183 201 208 203 201 169 157 160 164 161 161 154 159 152 157 151 136 137 140 137 141 126 133 135 118 89 74 28 23 2 8 326 58 34 3 355 352 331 341 4 355 335 2 1 342 331 337 335 330 321 324 325 322 322 322 320 324 312 314 346 328 343 332 327
280 93 144 61 114 235 213 233 216 333 358 339 309 197 175 169 96 75 95 109 142 147 144 146 217 203 181 217 224 225 216 184 163 180 203 199 188 180 153 153 147 152 155 156 158 158 157 161 150 144 148 149 147 141 137 139 137 118 84 91 80 44 356 9 356 24 22 350 335 335 313 337 345 327 352 8 330 329 324 324 328 318 318 320 317 320 318 324 317 317 313 329 333 345 354 331 331
306 24 30 255 203 107 106 28 78 128 62 249 211 320 330 79 22 83 116 150 176 160 171 171 218 207 175 214 230 221 216 165 158 188 197 185 157 172 184 181 161 154 153 162 167 162 161 157 148 139 143 146 146 153 153 141 132 129 142 101 69 20 0 22 293 340 352 327 323 321 325 316 336 26 349 315 312 318 313 312 321 318 316 314 316 314 312 314 314 315 313 329 339 348 355 326 318
325 44 250 87 99 147 123 315 295 250 233 271 99 222 296 49 297 276 159 189 177 184 190 193 209 173 181 218 219 222 202 173 168 177 182 173 168 173 180 172 163 168 168 163 159 158 155 154 148 144 149 152 157 152 155 154 150 146 146 160 144 154 231 298 356 336 324 321 310 333 0 360 335 322 328 310 343 320 316 329 331 316 314 317 310 311 316 313 319 317 312 345 342 351 330 316 320
149 156 244 69 289 24 278 100 355 5 328 293 282 343 245 184 241 126 235 199 216 195 194 177 208 195 214 218 217 190 140 140 165 193 180 183 173 180 165 172 164 155 161 157 143 143 139 146 148 152 158 160 161 158 147 146 142 140 137 138 145 170 203 231 294 339 295 282 334 351 346 322 335 349 333 339 331 316 321 327 322 321 317 312 317 320 323 320 317 316 336 349 336 326 314 324 332
262 323 9 196 102 156 351 186 208 140 265 10 292 18 278 217 213 186 201 202 203 190 167 189 214 195 172 172 178 170 173 185 189 181 187 185 182 178 169 159 157 164 149 133 139 138 146 153 146 144 136 140 145 154 157 159 156 145 148 160 167 188 198 203 214 179 331 316 309 350 324 348 336 327 307 340 332 319 320 321 321 321 315 314 317 316 320 319 321 323 347 339 321 315 321 326 326
246 20 195 0 44 226 140 253 150 175 210 238 285 323 282 284 200 152 159 169 178 162 183 192 192 161 171 172 165 174 181 187 186 189 186 183 179 167 153 143 143 141 134 133 150 161 157 150 146 149 152 159 165 173 169 162 155 154 153 172 176 179 185 221 205 196 251 289 318 316 325 293 335 299 277 320 318 309 310 317 324 318 312 311 314 317 318 321 325 331 342 328 317 320 322 325 320
209 151 174 171 128 59 41 280 25 328 120 246 348 269 277 269 346 153 147 153 153 162 158 176 170 178 173 174 171 173 196 205 194 194 186 181 177 166 155 142 140 142 150 159 169 158 158 168 164 159 158 171 168 176 172 165 157 161 164 175 172 181 184 183 130 268 215 223 273 263 254 312 277 275 305 279 281 294 318 314 313 310 309 309 313 318 320 330 328 329 328 323 324 322 321 316 318